Back to catalog

DELTA 1 DEB

AliveSSO
NORAD 21568·DEBRIS·🇺🇸 United States

Launched Jun 12, 1975 from Vandenberg Space Force Base

Loading…

Next Passes (next 24 hours)

TLE

FreshSource: Space-Track

Epoch: Sep 14, 2026, 00:48 UTC

1 21568U 75052HN  26257.03344204  .00000501  00000-0  60750-3 0  9990
2 21568  99.8882 107.2440 0239309 245.0204 279.5299 13.60102827739810

Track DELTA 1 DEB in real time with AllMySat

Download on the App Store